Location: ?????
(44.4284°N, 135.2222°E)
Time: 09:56:38
(UTC+00:00)

DELTA 2 R/B (1) - Pass Details

Date: 19 January 2026
Orbit: 786 x 800 km, 39.6° (Epoch: 10 February)

Event Time Altitude Azimuth Distance (km) Brightness Sun altitude
Rises 09:28:54 0° 247° (WSW) 3,283 8.4 -17.4°
Reaches altitude 10° 09:31:28 10° 242° (WSW) 2,352 7.2 -17.8°
Maximum altitude 09:36:45 47° 170° (S) 1,037 4.1 -18.7°
Enters shadow 09:39:07 29° 115° (ESE) 1,402 4.4 -19.2°
